TIME,�g��[���C[MJ/h],����[MJ/h],�Ɩ�[MJ/h],�~�[[MJ/h],�①��[MJ/h],��y���[MJ/h],�Ǝ��q��[MJ/h],���̑��s��[MJ/h],�u�����`������[MJ/h]
2003/11/1 0:00,0.108,0,1.7568,0.0216,0,0.20016,1.18944,0,-0.27504
2003/11/1 0:15,0.108,0,1.5192,0.0288,0.44208,0.32976,0.70704,0,-0.24336
2003/11/1 0:30,0.10944,0,0.34992,0.02736,0.45648,0.11232,0.07632,0,-0.01872
2003/11/1 0:45,0.10944,0,0.35568,0.0216,0,0.11232,0.07056,0,0.03024
2003/11/1 1:00,0.108,0,0.3456,0.02592,0.28656,0.11232,0.07776,0,0.00576
2003/11/1 1:15,0.11088,0,0.29232,0.03024,0.45936,0.144,0.0432,0,-0.00432
2003/11/1 1:30,0.10944,0,0.04752,0.02304,0.16704,0.11232,0.07488,0,0.0648
2003/11/1 1:45,0.10224,0,0.0432,0.0216,0.108,0.11232,0.07632,0,0.06048
2003/11/1 2:00,0.11376,0,0.04752,0.0288,0.47088,0.11232,0.07344,0,0.03744
2003/11/1 2:15,0.10944,0,0.04752,0.02592,0.33696,0.11232,0.07632,0,0.05616
2003/11/1 2:30,0.11088,0,0.0432,0.0216,0,0.11232,0.0432,0,0.10656
2003/11/1 2:45,0.10944,0,0.0432,0.03024,0.3672,0.11232,0.07344,0,0.05472
2003/11/1 3:00,0.11232,0,0.0432,0.0288,0.46368,0.11232,0.07056,0,0.04608
2003/11/1 3:15,0.11088,0,0.04752,0.02304,0.04608,0.11232,0.07488,0,0.0864
2003/11/1 3:30,0.11232,0,0.04752,0.02304,0.19872,0.10944,0.07344,0,0.072
2003/11/1 3:45,0.11664,0,0.0432,0.036,0.45936,0.11376,0.07776,0,0.036
2003/11/1 4:00,0.12096,0,0.0432,0.02304,0.21312,0.10944,0.0432,0,0.07632
2003/11/1 4:15,0.11232,0,0.05616,0.0216,0.0288,0.11232,0.072,0,0.08064
2003/11/1 4:30,0.11232,0,0.04896,0.02736,0.47232,0.1152,0.0792,0,0.036
2003/11/1 4:45,0.11808,0,0.04752,0.02736,0.36288,0.11664,0.07488,0,0.0504
2003/11/1 5:00,0.1152,0,0.0432,0.0216,0,0.11664,0.0792,0,0.10224
2003/11/1 5:15,0.11232,0,0.0432,0.02736,0.324,0.1152,0.0432,0,0.0576
2003/11/1 5:30,0.108,0,0.05472,0.03024,0.46368,0.11232,0.07488,0,0.036
2003/11/1 5:45,0.11376,0,0.0432,0.03888,0.5256,0.11232,0.0792,0,0.01008
2003/11/1 6:00,0.11088,0,0.04752,0.04032,0.56448,0.11232,0.07488,0,-0.00576
2003/11/1 6:15,0.11088,0,0.0432,0.03024,0.44784,0.11232,0.0432,0,0.0288
2003/11/1 6:30,0.10944,0,0.0432,0.02736,0.54,0.11232,0.07776,0,0.02736
2003/11/1 6:45,0.10368,0,0.05472,0.02304,0.50256,0.11376,0.07488,0,0.03312
2003/11/1 7:00,0.10944,0,0.24336,0.02592,0.48816,0.12096,0.07776,0,0
2003/11/1 7:15,0.108,0,0.05616,0.0288,0.46368,0.11376,0.0432,0,0.03888
2003/11/1 7:30,0.10512,0,0.0432,0.02448,0.468,0.11088,0.08064,0,0.03888
2003/11/1 7:45,0.11088,0,0.08496,0.0216,0.05472,0.11232,0.51696,0,0.0216
2003/11/1 8:00,0.15408,0,0.37872,1.46304,0.26784,0.1152,0.37152,0,-0.09936
2003/11/1 8:15,0.144,0,0.77184,0.7632,0.49248,0.11232,0.0432,0,0.00864
2003/11/1 8:30,0.13104,0,1.1376,0.43776,0.4752,0.108,0.07632,0,-0.0288
2003/11/1 8:45,0.108,0,1.63728,0.02304,0.0864,0.11376,0.3384,0,-0.09216
2003/11/1 9:00,0.13104,0,1.12176,0.0288,0.20448,0.11232,0.07632,0,-0.00864
2003/11/1 9:15,0.24624,0,1.05264,0.02448,0.47376,0.11088,0.0792,0,-0.06768
2003/11/1 9:30,0.11952,0,1.28304,0.02736,0.43632,0.10944,0.07488,0,-0.05904
2003/11/1 9:45,0.108,0,1.35504,0.0216,0,0.11376,0.08352,0,0.01008
2003/11/1 10:00,0.11088,0,0.83952,0.03168,0.31536,0.11232,0.07632,0,0.0216
2003/11/1 10:15,0.1008,0,0.92304,0.03024,0.46368,0.11088,0.07344,0,-0.00288
2003/11/1 10:30,0.108,0,1.0512,0.02304,0.28368,0.11376,0.08784,0,0
2003/11/1 10:45,0.108,0,1.15488,0.0216,0,0.11376,0.04032,0,0.0288
2003/11/1 11:00,0.108,0,1.07568,0.36432,0.49536,0.11232,0.07488,0,-0.08928
2003/11/1 11:15,0.1008,0,0.78048,0.02736,0.46368,0.11232,0.072,0,0.02448
2003/11/1 11:30,0.108,0,0.7992,0.02448,0.16704,0.10944,0.07056,0,0.05184
2003/11/1 11:45,0.10944,0,0.78624,0.09792,0.08784,0.11088,0.07488,0,0.0288
2003/11/1 12:00,0.2376,0,0.5904,1.35504,0.54576,0.12384,0.07344,0,-0.17424
2003/11/1 12:15,0.28656,0,0.54576,0.03024,0.4752,0.108,0.03888,0,0.00864
2003/11/1 12:30,0.25056,0,0.53712,0.02304,0.11664,0.11664,0.072,0,0.06336
2003/11/1 12:45,0.27936,0,0.33552,0.29808,0.18,0.16848,0.07632,0,0.0216
2003/11/1 13:00,0.1296,0,0.38736,0.36576,0.47232,0.324,0.04752,0,-0.03888
2003/11/1 13:15,0.108,0,0.32544,0.02448,0.45504,0.32544,0.06336,0,-0.00432
2003/11/1 13:30,0.10656,0,0.14832,0.0216,0,0.32832,0.06912,0,0.04608
2003/11/1 13:45,0.108,0,0.144,0.03168,0.2952,0.20304,0.07056,0,0.03456
2003/11/1 14:00,0.11088,0,0.25776,0.02736,0.468,0.11232,0.07776,0,0.01584
2003/11/1 14:15,0.11088,0,0.2592,0.02448,0.30384,0.11232,0.03888,0,0.04608
2003/11/1 14:30,0.11088,0,0.2592,0.0216,0,0.11232,0.07344,0,0.0792
2003/11/1 14:45,0.11232,0,0.26064,0.03024,0.46224,0.11088,0.07056,0,0.0216
2003/11/1 15:00,0.1152,0,0.17856,0.03024,0.47376,0.11664,0.06768,0,0.02304
2003/11/1 15:15,0.11088,0,0.31248,0.02736,0.252,0.11088,0.0432,0,0.04176
2003/11/1 15:30,0.11088,0,0.40896,0.02304,0.05904,0.22176,0.06768,0,0.00432
2003/11/1 15:45,0.11088,0,0.18432,0.02592,0.48096,0.43488,0.07056,0,-0.02448
2003/11/1 16:00,0.10224,0,0.18144,0.03312,0.46512,0.43776,0.07344,0,-0.0144
2003/11/1 16:15,0.11232,0,0.14976,0.02304,0.09216,0.4536,0.07056,0,0.03024
2003/11/1 16:30,0.13248,0,0.27792,0.02592,0.1944,0.67392,0.04032,0,-0.05904
2003/11/1 16:45,0.1368,0,0.36432,0.03456,0.47088,0.66672,0.07056,0,-0.10368
2003/11/1 17:00,0.1296,0,0.70704,0.02736,0.4608,0.56736,0.07344,0,-0.12672
2003/11/1 17:15,0.13248,0,0.8352,0.02448,0.18,0.58176,0.07056,0,-0.11808
2003/11/1 17:30,0.108,0,1.37664,0.02304,0.07344,0.68112,0.03888,0,-0.16704
2003/11/1 17:45,0.108,0,1.64448,0.03456,0.468,0.77184,0.06768,0,-0.26352
2003/11/1 18:00,0.10944,0,1.67184,0.02736,0.45792,0.70416,0.07488,0,-0.24912
2003/11/1 18:15,0.108,0,1.65168,0.02448,0.19872,0.64368,0.072,0,-0.18432
2003/11/1 18:30,0.20448,0,2.72304,0.0216,0.0576,0.432,0.0432,0,-0.13536
2003/11/1 18:45,0.288,0,2.88864,0.03456,0.468,0.42336,0.07488,0,-0.19872
2003/11/1 19:00,0.28512,0,2.99376,0.02736,0.46224,0.432,0.07488,0,-0.22896
2003/11/1 19:15,0.17856,0,2.3112,0.02448,0.13392,0.40752,0.04032,0,-0.1728
2003/11/1 19:30,0.19296,0,1.908,0.30672,0.13536,0.40896,0.07056,0,-0.21888
2003/11/1 19:45,0.10944,0,2.2248,0.34272,0.4752,0.42912,0.06624,0,-0.27648
2003/11/1 20:00,0.10944,0,2.628,0.18288,0.46512,0.42912,0.07056,0,-0.24768
2003/11/1 20:15,0.11232,0,2.6856,0.02304,0.15264,0.42768,0.03888,0,-0.17856
2003/11/1 20:30,0.108,0,3.0528,0.02304,0.1008,0.5544,0.07344,0,-0.25488
2003/11/1 20:45,0.10224,0,3.04416,0.03312,0.46944,0.576,0.06912,0,-0.30816
2003/11/1 21:00,0.10656,0,2.57472,0.02592,0.4608,0.56304,0.07488,0,-0.31968
2003/11/1 21:15,0.108,0,2.62512,0.0216,0.13248,0.53712,0.036,0,-0.29952
2003/11/1 21:30,0.10944,0,2.53296,0.02304,0.12672,0.32688,0.07632,0,-0.17568
2003/11/1 21:45,0.11232,0,1.944,0.03456,0.468,0.34272,0.072,0,-0.15552
2003/11/1 22:00,0.11376,0,2.08224,0.02592,0.45936,0.3384,0.0432,0,-0.17712
2003/11/1 22:15,0.108,0,2.00448,0.0216,0.04752,0.42192,0.06912,0,-0.11808
2003/11/1 22:30,0.108,0,1.98576,0.02448,0.22176,0.44928,0.44064,0,-0.17712
2003/11/1 22:45,0.108,0,2.42352,0.03168,0.468,0.45792,0.072,0,-0.18432
2003/11/1 23:00,0.108,0,1.81584,0.02736,0.42192,0.31824,1.49184,0,-0.29952
2003/11/1 23:15,0.11088,0,1.16496,0.0216,0,0.29664,0.65088,0,-0.14112
2003/11/1 23:30,0.108,0,0.37008,0.03168,0.30096,0.54432,0.07488,0,-0.0792
2003/11/1 23:45,0.10512,0,0.36864,0.03312,0.468,0.54,0.06624,0,-0.08208
2003/11/2 0:00,0.11088,0,0.36288,0.02304,0.16992,0.50976,0.04032,0,-0.03456
2003/11/2 0:15,0.1008,0,0.24624,0.02304,0.108,0.38592,0.07056,0,0.00864
2003/11/2 0:30,0.11664,0,0.06912,0.036,0.46944,0.2808,0.06912,0,-0.01584
2003/11/2 0:45,0.11376,0,0.1152,0.02592,0.49104,0.27648,0.072,0,-0.02016
2003/11/2 1:00,0.10944,0,0.05616,0.0216,0.576,0.20736,0.07056,0,-0.0144
2003/11/2 1:15,0.11232,0,0.0432,0.0216,0.57888,0.20016,0.03888,0,-0.00288
2003/11/2 1:30,0.1152,0,0.05472,0.02304,0.46368,0.20736,0.07488,0,0.01152
2003/11/2 1:45,0.108,0,0.0432,0.02592,0.54144,0.2016,0.07344,0,0.02592
2003/11/2 2:00,0.11232,0,0.0432,0.02304,0.51696,0.20016,0.03888,0,0.02304
2003/11/2 2:15,0.11088,0,0.05184,0.02592,0.49248,0.20448,0.072,0,0.01728
2003/11/2 2:30,0.10944,0,0.05184,0.02736,0.48384,0.2016,0.06912,0,0.0216
2003/11/2 2:45,0.10224,0,0.0432,0.03168,0.468,0.2016,0.072,0,0.02592
2003/11/2 3:00,0.11088,0,0.04608,0.03168,0.45072,0.20304,0.07056,0,0.02304
2003/11/2 3:15,0.11088,0,0.0432,0.0216,0,0.20016,0.03744,0,0.08208
2003/11/2 3:30,0.11376,0,0.04464,0.02736,0.29232,0.20448,0.07056,0,0.03744
2003/11/2 3:45,0.11952,0,0.04752,0.02592,0.46512,0.20304,0.07056,0,0.01728
2003/11/2 4:00,0.11088,0,0.04752,0.0288,0.3744,0.20304,0.07056,0,0.03312
2003/11/2 4:15,0.11232,0,0.0432,0.0216,0,0.2016,0.03888,0,0.08352
2003/11/2 4:30,0.10224,0,0.0432,0.02448,0.36288,0.20304,0.06912,0,0.05616
2003/11/2 4:45,0.10656,0,0.04896,0.03024,0.45648,0.2016,0.06912,0,0.01584
2003/11/2 5:00,0.11232,0,0.04464,0.02592,0.12384,0.19728,0.07056,0,0.06336
2003/11/2 5:15,0.10656,0,0.0432,0.02304,0.14112,0.2016,0.0432,0,0.06768
2003/11/2 5:30,0.1152,0,0.0504,0.03168,0.46512,0.20592,0.06768,0,0.0216
2003/11/2 5:45,0.1152,0,0.04752,0.0216,0.29952,0.2016,0.06912,0,0.04032
2003/11/2 6:00,0.10656,0,0.04896,0.0216,0,0.20304,0.07056,0,0.07632
2003/11/2 6:15,0.11088,0,0.0432,0.02736,0.44208,0.20592,0.04032,0,0.0288
2003/11/2 6:30,0.10512,0,0.05184,0.02592,0.4392,0.2016,0.07344,0,0.02304
2003/11/2 6:45,0.10512,0,0.07632,0.0216,0,0.20304,0.072,0,0.0792
2003/11/2 7:00,0.15984,0,0.61056,1.11888,0.29664,0.4032,0.07632,0,-0.04464
2003/11/2 7:15,0.14256,0,0.65088,1.44,0.46512,0.43632,0.07632,0,-0.0648
2003/11/2 7:30,0.19584,0,0.26784,0.53712,0.18576,0.43344,0.07488,0,-0.04608
2003/11/2 7:45,0.108,0,0.67248,0.07776,0.06336,0.41616,0.072,0,-0.02016
2003/11/2 8:00,0.108,0,0.74592,0.33408,0.46368,0.39456,0.06912,0,-0.072
2003/11/2 8:15,0.11952,0,0.72576,0.70272,0.46944,0.37872,0.07488,0,-0.11232
2003/11/2 8:30,0.108,0,0.88992,1.0656,0.02736,0.37728,0.0432,0,-0.05472
2003/11/2 8:45,0.108,0,0.69696,0.02448,0.28224,0.51264,0.07344,0,-0.03744
2003/11/2 9:00,0.108,0,0.92304,0.03456,0.45936,0.52992,0.07344,0,-0.09792
2003/11/2 9:15,0.108,0,1.2816,0.02304,0.19008,0.25488,0.072,0,-0.06624
2003/11/2 9:30,0.10944,0,1.2312,0.30672,0.1008,0.1944,0.07056,0,-0.11952
2003/11/2 9:45,0.108,0,0.59616,0.3888,0.46368,0.1944,0.03888,0,-0.06336
2003/11/2 10:00,0.108,0,0.0432,0.21312,0.35136,0.1944,0.07776,0,0.03168
2003/11/2 10:15,0.10224,0,0.04896,0.0216,0,0.1944,0.07776,0,0.08784
2003/11/2 10:30,0.108,0,0.04176,0.02448,0.38016,0.1944,0.0432,0,0.04464
2003/11/2 10:45,0.10512,0,0.0432,0.0288,0.45792,0.1944,0.07632,0,0.04176
2003/11/2 11:00,0.108,0,0.04464,0.02304,0.04032,0.1944,0.07632,0,0.0792
2003/11/2 11:15,0.108,0,0.04464,0.02736,0.22608,0.1944,0.07488,0,0.06624
2003/11/2 11:30,0.10224,0,0.0504,0.03312,0.4608,0.1944,0.07776,0,0.03312
2003/11/2 11:45,0.10944,0,0.04176,0.02304,0.19728,0.19584,0.0432,0,0.06768
2003/11/2 12:00,0.11088,0,0.04752,0.0216,0.08208,0.19872,0.07344,0,0.0648
2003/11/2 12:15,0.10656,0,0.0432,0.02592,0.46512,0.1944,0.07776,0,0.0288
2003/11/2 12:30,0.108,0,0.04608,0.02592,0.32976,0.1944,0.07488,0,0.04752
2003/11/2 12:45,0.10944,0,0.0432,0.0216,0,0.19584,0.0432,0,0.08784
2003/11/2 13:00,0.10224,0,0.04896,0.02304,0.3888,0.1944,0.07776,0,0.036
2003/11/2 13:15,0.1008,0,0.0432,0.03168,0.45072,0.1944,0.07344,0,0.04032
2003/11/2 13:30,0.10944,0,0.0432,0.02448,0.0936,0.1944,0.07632,0,0.07632
2003/11/2 13:45,0.108,0,0.0432,0.02304,0.14976,0.1944,0.0432,0,0.07344
2003/11/2 14:00,0.108,0,0.04176,0.02448,0.45936,0.1944,0.07488,0,0.0288
2003/11/2 14:15,0.108,0,0.04608,0.0288,0.27936,0.1944,0.07056,0,0.05472
2003/11/2 14:30,0.10944,0,0.04464,0.0216,0,0.1944,0.07632,0,0.08784
2003/11/2 14:45,0.10944,0,0.04608,0.0288,0.45216,0.1944,0.07488,0,0.04032
2003/11/2 15:00,0.108,0,0.04176,0.03024,0.40032,0.1944,0.0432,0,0.04752
2003/11/2 15:15,0.10224,0,0.20016,0.02304,0.00144,0.19872,0.07488,0,0.07344
2003/11/2 15:30,0.108,0,0.504,0.02304,0.33264,0.2016,0.0792,0,0.01584
2003/11/2 15:45,0.10944,0,0.69552,0.02304,0.49392,0.216,0.0432,0,-0.0216
2003/11/2 16:00,0.10944,0,0.5616,0.02736,0.4752,0.16416,0.07488,0,-0.01584
2003/11/2 16:15,0.108,0,0.87552,0.03168,0.47376,0.11376,0.57312,0,-0.08064
2003/11/2 16:30,0.11232,0,0.83376,0.02736,0.30096,0.11088,2.13408,0,-0.1224
2003/11/2 16:45,0.11232,0,0.74016,0.0216,0,0.18576,0.32112,0,-0.01008
2003/11/2 17:00,0.11232,0,0.64512,0.03456,0.43056,0.22896,0.07776,0,-0.06624
2003/11/2 17:15,0.11664,0,0.4608,0.02304,0.47376,0.11088,0.06912,0,-0.02736
2003/11/2 17:30,0.1152,0,0.38448,0.03168,0.46512,0.11232,0.06912,0,-0.02448
2003/11/2 17:45,0.1152,0,0.86688,0.0216,0.35856,0.11376,0.04032,0,-0.02448
2003/11/2 18:00,0.1152,0,0.89136,0.0216,0,0.11088,0.06912,0,0.00576
2003/11/2 18:15,0.11664,0,1.8144,0.02736,0.39168,0.11088,0.072,0,-0.11952
2003/11/2 18:30,0.1152,0,2.65824,0.03744,0.46512,0.11232,0.072,0,-0.15696
2003/11/2 18:45,0.14112,0,1.8504,1.76112,0.49248,0.11088,0.06624,0,-0.21888
2003/11/2 19:00,0.14976,0,1.8432,0.9504,0.31248,0.11232,0.03744,0,-0.13968
2003/11/2 19:15,0.11232,0,1.97136,0.27072,0.0072,0.10944,0.072,0,-0.12528
2003/11/2 19:30,0.1152,0,1.95696,0.03168,0.37872,0.11232,0.07344,0,-0.16704
2003/11/2 19:45,0.1152,0,1.94976,0.0288,0.46944,0.11232,0.07344,0,-0.17856
2003/11/2 20:00,0.10944,0,2.07216,0.02448,0.4968,0.11808,0.04032,0,-0.19584
2003/11/2 20:15,0.10656,0,1.19952,0.4896,0.56016,0.31536,0.08064,0,-0.1728
2003/11/2 20:30,0.12096,0,1.39392,0.27216,0.55152,0.34992,0.07632,0,-0.12384
2003/11/2 20:45,0.11952,0,1.40544,0.02304,0.45648,0.64944,0.07344,0,-0.08352
2003/11/2 21:00,0.108,0,1.43136,0.02448,0.53856,0.61344,0.03888,0,-0.11232
2003/11/2 21:15,0.1152,0,1.40976,0.02736,0.51984,0.61344,0.07488,0,-0.09072
2003/11/2 21:30,0.11376,0,1.40832,0.02592,0.49536,0.50832,0.07056,0,-0.0864
2003/11/2 21:45,0.108,0,2.10816,0.02448,0.49536,0.16272,0.06912,0,-0.09648
2003/11/2 22:00,0.108,0,1.8504,0.03168,0.46656,0.216,0.072,0,-0.10656
2003/11/2 22:15,0.09504,0,1.79568,0.03168,0.47088,0.216,0.03744,0,-0.11088
2003/11/2 22:30,0.108,0,2.02464,0.02304,0.06768,0.21456,0.06912,0,-0.04752
2003/11/2 22:45,0.108,0,3.72096,0.02448,0.27936,0.18144,0.07632,0,-0.29232
2003/11/2 23:00,0.11232,0,1.94832,0.02448,0.47376,0.11376,0.072,0,-0.08496
2003/11/2 23:15,0.10944,0,1.66032,0.02592,0.46944,0.11376,0.04032,0,-0.04896
2003/11/2 23:30,0.11088,0,1.93248,0.02304,0.06768,0.10944,0.06912,0,-0.05328
2003/11/2 23:45,0.10224,0,1.29024,0.02736,0.2088,0.11088,0.07776,0,-0.1008
2003/11/3 0:00,0.108,0,0.49968,0.03024,0.46944,0.12384,0.06912,0,-0.0216
2003/11/3 0:15,0.108,0,0.31104,0.02304,0.35568,0.1512,0.01728,0,0.0144
2003/11/3 0:30,0.108,0,0.30816,0.0216,0,0.1512,0.04464,0,0.0504
2003/11/3 0:45,0.10944,0,0.06912,0.03312,0.4032,0.29952,0.07056,0,-0.00144
2003/11/3 1:00,0.11376,0,0.04464,0.0288,0.46224,0.20016,0.03888,0,0.02736
2003/11/3 1:15,0.11232,0,0.02304,0.02304,0.14112,0.1152,0.072,0,0.09072
2003/11/3 1:30,0.11088,0,0.03024,0.02448,0.12816,0.11232,0.07632,0,0.06768
2003/11/3 1:45,0.11376,0,0.03744,0.0288,0.47376,0.11232,0.04032,0,0.04176
2003/11/3 2:00,0.11232,0,0.04464,0.02592,0.38736,0.10944,0.07056,0,0.04464
2003/11/3 2:15,0.11088,0,0.0432,0.0216,0,0.11232,0.07056,0,0.10224
2003/11/3 2:30,0.10368,0,0.04176,0.0288,0.31536,0.11088,0.07056,0,0.05472
2003/11/3 2:45,0.11088,0,0.0792,0.0288,0.46944,0.11232,0.03888,0,0.0432
2003/11/3 3:00,0.10368,0,0.0864,0.02448,0.17424,0.11376,0.072,0,0.072
2003/11/3 3:15,0.108,0,0.0432,0.02304,0.07056,0.11232,0.072,0,0.09504
2003/11/3 3:30,0.10512,0,0.0432,0.03168,0.468,0.1152,0.06912,0,0.04032
2003/11/3 3:45,0.11088,0,0.04608,0.02592,0.4032,0.11088,0.072,0,0.05184
2003/11/3 4:00,0.11088,0,0.04176,0.0216,0,0.11376,0.03744,0,0.09648
2003/11/3 4:15,0.11808,0,0.04464,0.0288,0.31104,0.11088,0.07488,0,0.05904
2003/11/3 4:30,0.10944,0,0.04032,0.0288,0.46224,0.11232,0.072,0,0.04464
2003/11/3 4:45,0.1152,0,0.04176,0.02304,0.17568,0.11232,0.03888,0,0.08352
2003/11/3 5:00,0.11232,0,0.05184,0.02304,0.07632,0.11232,0.07776,0,0.0648
2003/11/3 5:15,0.11664,0,0.04752,0.0288,0.47376,0.11232,0.07056,0,0.03456
2003/11/3 5:30,0.11088,0,0.04176,0.02592,0.3888,0.10944,0.0648,0,0.03744
2003/11/3 5:45,0.11088,0,0.04896,0.0216,0,0.11232,0.0432,0,0.10512
2003/11/3 6:00,0.10512,0,0.04176,0.02304,0.31104,0.11088,0.06912,0,0.0648
2003/11/3 6:15,0.11376,0,0.0432,0.02592,0.468,0.11232,0.07488,0,0.036
2003/11/3 6:30,0.1152,0,0.04176,0.0216,0.14112,0.11232,0.04032,0,0.08496
2003/11/3 6:45,0.10656,0,0.04176,0.0216,0.10512,0.11088,0.0648,0,0.08928
2003/11/3 7:00,0.11376,0,0.04752,0.03024,0.46224,0.1224,0.0648,0,0.03456
2003/11/3 7:15,0.11232,0,0.0576,0.02304,0.35712,0.11232,0.07344,0,0.05328
2003/11/3 7:30,0.10656,0,0.06768,0.0216,0,0.11232,0.07344,0,0.09216
2003/11/3 7:45,0.108,0,0.39312,0.02736,0.35856,0.2304,0.04032,0,-0.00144
2003/11/3 8:00,0.108,0,0.68688,0.03024,0.45648,0.42048,0.07632,0,-0.05904
2003/11/3 8:15,0.11952,0,0.55152,1.68768,0.17856,0.19872,0.072,0,-0.08928
2003/11/3 8:30,0.108,0,0.33696,0.02304,0.16272,0.2016,0.18144,0,0.03024
2003/11/3 8:45,0.108,0,0.3384,1.07136,0.50112,0.20304,0.55008,0,-0.1152
2003/11/3 9:00,0.108,0,0.67968,0.0216,0.28656,0.20016,0.63792,0,-0.08496
2003/11/3 9:15,0.108,0,0.48096,0.0216,0.0288,0.2016,0.07776,0,0.0288
2003/11/3 9:30,0.1008,0,0.10368,0.03024,0.46224,0.26352,0.07488,0,0.00288
2003/11/3 9:45,0.10224,0,0.39024,0.02448,0.39024,0.33984,0.08064,0,-0.05616
2003/11/3 10:00,0.10944,0,0.37584,0.0216,0,0.34704,0.06912,0,-0.0144
2003/11/3 10:15,0.10656,0,0.51984,0.49824,0.4104,0.32976,0.0792,0,-0.10224
2003/11/3 10:30,0.10944,0,0.85248,0.03024,0.45936,0.34704,0.0432,0,-0.08784
2003/11/3 10:45,0.10944,0,0.83952,0.02304,0.05328,0.50976,0.07344,0,-0.05184
2003/11/3 11:00,0.11376,0,1.46016,0.03024,0.2592,0.55152,0.07632,0,-0.08784
2003/11/3 11:15,0.108,0,1.44864,0.03312,0.47088,0.38736,0.0792,0,-0.0792
2003/11/3 11:30,0.11232,0,1.44432,0.0216,0.14976,0.34416,0.0432,0,-0.03312
2003/11/3 11:45,0.1008,0,1.42992,0.02304,0.16416,0.33264,0.07488,0,-0.02592
2003/11/3 12:00,0.10944,0,1.50192,0.03168,0.46224,0.34704,0.08928,0,-0.08064
2003/11/3 12:15,0.10944,0,1.45296,0.0216,0.2304,0.33696,0.06192,0,-0.03888
2003/11/3 12:30,0.19152,0,1.4328,0.0216,0.0864,0.37152,0.07632,0,-0.03744
2003/11/3 12:45,0.28944,0,1.36656,0.14256,0.47952,0.324,0.07344,0,-0.0864
2003/11/3 13:00,0.17568,0,1.54656,0.03312,0.45792,0.31536,0.07344,0,-0.08496
2003/11/3 13:15,0.108,0,1.76112,0.0216,0.0288,0.33408,0.07488,0,-0.0576
2003/11/3 13:30,0.108,0,1.61568,0.4752,0.3456,0.4104,0.03888,0,-0.15696
2003/11/3 13:45,0.108,0,2.15712,0.03312,0.46944,0.30096,0.07056,0,-0.1512
2003/11/3 14:00,0.10944,0,2.42208,0.02304,0.10224,0.21168,0.07632,0,-0.13104
2003/11/3 14:15,0.108,0,2.56752,0.02448,0.19728,0.20736,0.07776,0,-0.15264
2003/11/3 14:30,0.108,0,2.78352,0.03024,0.47952,0.2088,0.07056,0,-0.20304
2003/11/3 14:45,0.11088,0,2.44368,0.02448,0.288,0.2808,0.072,0,-0.16992
2003/11/3 15:00,0.11232,0,2.1816,0.0216,0.0072,0.34272,0.04032,0,-0.11088
2003/11/3 15:15,0.1152,0,2.17296,0.03312,0.47088,0.42768,0.07344,0,-0.19728
2003/11/3 15:30,0.12816,0,2.17008,0.0288,0.4104,0.58464,0.07056,0,-0.2088
2003/11/3 15:45,0.13392,0,2.16864,0.0216,0,0.5832,0.07488,0,-0.16128
2003/11/3 16:00,0.1296,0,2.15856,0.03168,0.3528,0.76176,0.03888,0,-0.22752
2003/11/3 16:15,0.12528,0,2.17008,0.0288,0.4608,0.80784,0.06624,0,-0.25776
2003/11/3 16:30,0.1296,0,2.14704,0.03024,0.5256,0.81648,0.07344,0,-0.28512
2003/11/3 16:45,0.11088,0,2.86704,0.02592,0.54144,0.58896,0.0648,0,-0.33552
2003/11/3 17:00,0.108,0,2.70432,0.03024,0.4392,0.4824,0.0432,0,-0.26496
2003/11/3 17:15,0.108,0,2.59056,0.02448,0.5544,0.50256,0.07056,0,-0.26352
2003/11/3 17:30,0.108,0,2.61936,0.14832,0.53568,0.57168,0.072,0,-0.2736
2003/11/3 17:45,0.10944,0,2.79648,0.3816,0.504,0.67536,0.07488,0,-0.31392
2003/11/3 18:00,0.10656,0,2.74032,0.2232,0.4968,0.67248,0.07776,0,-0.28656
2003/11/3 18:15,0.108,0,2.74896,0.02592,0.47664,0.5616,0.03888,0,-0.252
2003/11/3 18:30,0.14256,0,2.77488,0.03024,0.48096,0.30672,0.07776,0,-0.2088
2003/11/3 18:45,0.27792,0,2.72016,0.03024,0.46944,0.29088,0.07344,0,-0.19584
2003/11/3 19:00,0.27648,0,2.64816,0.02448,0.1224,0.29232,0.06192,0,-0.144
2003/11/3 19:15,0.28368,0,2.88144,0.02304,0.13536,0.29088,0.0576,0,-0.18432
2003/11/3 19:30,0.19008,0,2.73024,0.47376,0.4896,0.51696,0.072,0,-0.3024
2003/11/3 19:45,0.108,0,2.57328,0.324,0.46368,0.64224,0.07632,0,-0.30384
2003/11/3 20:00,0.108,0,2.55888,0.0216,0.28512,0.64512,0.0432,0,-0.22896
2003/11/3 20:15,0.21744,0,2.8728,0.0216,0,0.6408,0.07344,0,-0.23328
2003/11/3 20:30,0.108,0,3.16944,0.03456,0.44352,0.64512,0.07488,0,-0.3384
2003/11/3 20:45,0.108,0,3.01536,0.02448,0.4608,0.64944,0.06768,0,-0.32256
2003/11/3 21:00,0.108,0,3.04416,0.02304,0.08784,0.67104,0.07488,0,-0.29088
2003/11/3 21:15,0.108,0,3.10464,0.0216,0.19152,0.48672,0.23184,0,-0.25776
2003/11/3 21:30,0.10944,0,2.26944,0.03744,0.47088,0.40752,0.45792,0,-0.20448
2003/11/3 21:45,0.108,0,1.6272,0.02448,0.3024,0.62352,0.06912,0,-0.10656
2003/11/3 22:00,0.108,0,1.79136,0.0216,0,0.59472,0.07344,0,-0.07776
2003/11/3 22:15,0.108,0,1.94112,0.036,0.44784,0.58896,0.03744,0,-0.16272
2003/11/3 22:30,0.108,0,1.93968,0.02592,0.46944,0.38736,0.50544,0,-0.216
2003/11/3 22:45,0.108,0,2.06928,0.0216,0.05472,0.34992,0.07488,0,-0.11232
2003/11/3 23:00,0.108,0,1.58256,0.02448,0.24336,0.34272,1.1376,0,-0.24336
2003/11/3 23:15,0.11376,0,0.67968,0.03024,0.47088,0.28944,0.25776,0,-0.108
2003/11/3 23:30,0.11088,0,0.40752,0.02448,0.216,0.2376,0.07488,0,0.00576
2003/11/3 23:45,0.11232,0,0.04464,0.0216,0.04752,0.22032,0.072,0,0.06768
2003/11/4 0:00,0.10944,0,0.04464,0.0216,0.47088,0.21312,0.07344,0,0.01152
2003/11/4 0:15,0.108,0,0.0432,0.0288,0.34416,0.21024,0.04032,0,0.03456
2003/11/4 0:30,0.10512,0,0.0504,0.0216,0,0.21024,0.06768,0,0.0792
2003/11/4 0:45,0.10224,0,0.0432,0.03312,0.3816,0.21744,0.07056,0,0.04464
2003/11/4 1:00,0.11232,0,0.04896,0.02736,0.44784,0.21024,0.06912,0,0.02592
2003/11/4 1:15,0.10944,0,0.04896,0.0216,0,0.21168,0.06912,0,0.07776
2003/11/4 1:30,0.11376,0,0.0432,0.0288,0.29376,0.21744,0.04032,0,0.04464
2003/11/4 1:45,0.10512,0,0.0432,0.02592,0.4608,0.21312,0.07056,0,0.0216
2003/11/4 2:00,0.10368,0,0.0432,0.0216,0.04752,0.21888,0.07056,0,0.08928
2003/11/4 2:15,0.11664,0,0.0432,0.02736,0.22608,0.21024,0.07632,0,0.04896
2003/11/4 2:30,0.10656,0,0.0432,0.0288,0.46944,0.21456,0.05472,0,0.02448
2003/11/4 2:45,0.11376,0,0.04752,0.0216,0.11808,0.21888,0.05904,0,0.06192
2003/11/4 3:00,0.1152,0,0.04896,0.02304,0.15552,0.22176,0.07344,0,0.06624
2003/11/4 3:15,0.10368,0,0.0432,0.03168,0.4608,0.21024,0.07488,0,0.03312
2003/11/4 3:30,0.11664,0,0.0432,0.0216,0.16272,0.2088,0.03744,0,0.0648
2003/11/4 3:45,0.1152,0,0.04608,0.02304,0.11088,0.21024,0.06912,0,0.06768
2003/11/4 4:00,0.1152,0,0.04752,0.03456,0.468,0.21456,0.07056,0,0.02304
2003/11/4 4:15,0.11664,0,0.11664,0.0216,0.2088,0.22464,0.07056,0,0.0432
2003/11/4 4:30,0.10944,0,0.36432,1.19664,0.08352,0.21024,0.05328,0,-0.04032
2003/11/4 4:45,0.10944,0,0.49248,0.03456,0.46368,0.21168,0.03312,0,-0.03168
2003/11/4 5:00,0.108,0,0.85104,0.02448,0.24336,0.19728,0.03456,0,-0.02448
2003/11/4 5:15,0.108,0,0.08496,0.29952,0.0072,0.2016,0.03312,0,0.06336
2003/11/4 5:30,0.10944,0,0.14688,2.25648,0.47088,0.19872,0.0288,0,0.03744
2003/11/4 5:45,0.12096,0,0.108,0.52992,0.28368,0.20016,0.03024,0,0.03168
2003/11/4 6:00,0.108,0,0.06336,0.13248,0,0.19728,0,0,0.0792
2003/11/4 6:15,0.10944,0,0.17136,0.07056,0.43632,0.19728,0.0792,0,0.01152
2003/11/4 6:30,0.13104,0,0.79776,0.0288,0.31824,0.19872,0.07344,0,-0.04464
2003/11/4 6:45,0.26928,0,0.63648,0.46944,0.0792,0.19872,0.07632,0,-0.01152
2003/11/4 7:00,0.15408,0,0.85104,1.40976,0.47664,0.20736,0.07632,0,-0.10368
2003/11/4 7:15,0.11232,0,0.7632,0.02592,0.46656,0.20016,0.04032,0,-0.0144
2003/11/4 7:30,0.14688,0,0.57744,0.19584,0.01728,0.19584,0.07488,0,0.03168
2003/11/4 7:45,0.108,0,0.97488,0.34416,0.29952,0.20016,0.41472,0,-0.1368
2003/11/4 8:00,0.10512,0,0.55296,0.23472,0.46656,0.20304,0.07632,0,-0.06048
2003/11/4 8:15,0.52848,0,0.28944,0.0216,0.0792,0.20016,0.0432,0,0.00288